Baker, MT

2:45 AM MDT on August 29, 2016 (GMT -0600)
Baker Municipal

Weather History for KBHK - December, 2011

Change the Weather History Date:

Monday, December 12, 2011

  Actual Average Record
Temperature  
Mean Temperature 16 °F -  
Max Temperature 21 °F -8 °F 52 °F (2013)
Min Temperature 12 °F 24 °F -18 °F (2000)
Degree Days  
Heating Degree Days 48    
Moisture  
Dew Point 18 °F    
Average Humidity 91    
Maximum Humidity 96    
Minimum Humidity 85    
Precipitation  
Precipitation 0.00 in - - ()
Sea Level Pressure  
Sea Level Pressure 30.18 in    
Wind  
Wind Speed 9 mph (ESE)    
Max Wind Speed 16 mph    
Max Gust Speed 24 mph    
Visibility 3 miles    
Events      
Averages and records for this station are not official NWS values.
T = Trace of Precipitation, MM = Missing Value Source: NWS Daily Summary

Daily Weather History Graph

Daily Weather History Graph

Search for Another Location

Airport or City:

Trip Planner

Search our weather history database for the weather conditions in past years. The results will help you decide how hot, cold, wet, or windy it might be!

Date:

Astronomy

Dec. 12, 2011 Rise Set
Actual Time 7:30 AM MST 4:10 PM MST
Civil Twilight 6:56 AM MST 4:45 PM MST
Nautical Twilight 6:18 AM MST 5:23 PM MST
Astronomical Twilight 5:41 AM MST 5:59 PM MST
Moon 6:27 PM MST (12/12) 9:01 AM MST (12/12)
Length of Visible Light 9h 49m
Length of Day
8h 39m
Waning Gibbous, 95% of the Moon is Illuminated
Dec 12
Waning Gibbous
Dec 17
Last Quarter
Dec 24
New
Dec 31
First Quarter
Jan 9
Full

Hourly Weather History & Observations

Time (MST) Temp. Windchill Dew Point Humidity Pressure Visibility Wind Dir Wind Speed Gust Speed Precip Events Conditions
12:51 AM 19.0 °F - 16.0 °F 88% 30.14 in 10.0 mi Calm Calm - N/A   Clear
1:51 AM 14.0 °F 3.9 °F 12.0 °F 92% 30.16 in 8.0 mi ESE 6.9 mph - N/A   Clear
2:42 AM 12.2 °F 4.3 °F 8.6 °F 85% 30.08 in 9.0 mi ESE 4.6 mph - N/A   Scattered Clouds
3:39 AM 19.4 °F 8.6 °F 17.6 °F 93% 30.10 in 4.0 mi East 9.2 mph - N/A   Overcast
3:51 AM 19.0 °F 9.0 °F 18.0 °F 96% 30.20 in 2.0 mi East 8.1 mph - N/A   Overcast
4:28 AM 19.4 °F 7.2 °F 17.6 °F 93% 30.10 in 1.5 mi East 11.5 mph - N/A   Overcast
4:40 AM 19.4 °F 7.9 °F 17.6 °F 93% 30.10 in 2.5 mi East 10.4 mph - N/A   Overcast
4:51 AM 19.9 °F 8.6 °F 18.0 °F 92% 30.20 in 3.0 mi East 10.4 mph - N/A   Overcast
5:15 AM 19.4 °F 8.6 °F 17.6 °F 93% 30.11 in 2.5 mi East 9.2 mph - N/A   Overcast
5:25 AM 19.4 °F 10.4 °F 17.6 °F 93% 30.12 in 3.0 mi East 6.9 mph - N/A   Overcast
5:43 AM 19.4 °F 9.5 °F 17.6 °F 93% 30.12 in 2.5 mi East 8.1 mph - N/A   Overcast
5:48 AM 19.4 °F 10.4 °F 17.6 °F 93% 30.12 in 3.0 mi East 6.9 mph - N/A   Overcast
5:51 AM 19.9 °F 12.1 °F 18.0 °F 92% 30.24 in 4.0 mi ESE 5.8 mph - N/A   Overcast
6:05 AM 19.4 °F 8.6 °F 17.6 °F 93% 30.13 in 2.0 mi ESE 9.2 mph - N/A   Overcast
6:11 AM 19.4 °F 7.9 °F 17.6 °F 93% 30.13 in 1.2 mi ESE 10.4 mph - N/A   Overcast
6:31 AM 19.4 °F 9.5 °F 17.6 °F 93% 30.14 in 0.8 mi East 8.1 mph - N/A   Mist
6:40 AM 19.4 °F 7.2 °F 17.6 °F 93% 30.14 in 1.2 mi East 11.5 mph - N/A   Overcast
6:51 AM 19.0 °F 7.5 °F 17.1 °F 92% 30.27 in 1.2 mi ESE 10.4 mph - N/A   Overcast
7:06 AM 19.4 °F 8.6 °F 17.6 °F 93% 30.14 in 2.5 mi ESE 9.2 mph - N/A   Overcast
7:45 AM 19.4 °F 9.5 °F 17.6 °F 93% 30.15 in 1.5 mi East 8.1 mph - N/A   Overcast
7:51 AM 19.0 °F 9.0 °F 18.0 °F 96% 30.27 in 1.5 mi East 8.1 mph - N/A   Overcast
8:20 AM 19.4 °F 7.2 °F 17.6 °F 93% 30.16 in 0.8 mi East 11.5 mph - N/A   Overcast
8:30 AM 19.4 °F 8.6 °F 17.6 °F 93% 30.16 in 1.2 mi East 9.2 mph - N/A   Overcast
9:39 AM 21.2 °F 10.9 °F 19.4 °F 93% 30.18 in 2.0 mi ESE 9.2 mph - N/A   Overcast
9:51 AM 21.0 °F 10.6 °F 19.0 °F 92% 30.31 in 1.8 mi East 9.2 mph - N/A   Overcast
10:00 AM 21.2 °F 10.1 °F 19.4 °F 93% 30.18 in 2.0 mi ESE 10.4 mph - N/A   Overcast
10:18 AM 21.2 °F 9.5 °F 19.4 °F 93% 30.18 in 2.5 mi ESE 11.5 mph - N/A   Overcast
10:51 AM 21.0 °F 9.9 °F 19.0 °F 92% 30.30 in 2.0 mi East 10.4 mph - N/A   Overcast
11:23 AM 21.2 °F 9.5 °F 19.4 °F 93% 30.17 in 3.0 mi ESE 11.5 mph - N/A   Overcast
11:46 AM 21.2 °F 9.5 °F 19.4 °F 93% 30.17 in 2.5 mi East 11.5 mph - N/A   Overcast
11:51 AM 21.9 °F 11.7 °F 19.0 °F 89% 30.29 in 2.0 mi East 9.2 mph - N/A   Overcast
12:22 PM 21.2 °F 8.9 °F 19.4 °F 93% 30.17 in 3.0 mi ESE 12.7 mph - N/A   Overcast
12:51 PM 21.0 °F 9.9 °F 18.0 °F 88% 30.30 in 4.0 mi ESE 10.4 mph - N/A   Overcast
1:51 PM 21.0 °F 9.9 °F 19.0 °F 92% 30.30 in 3.0 mi ESE 10.4 mph - N/A   Overcast
2:51 PM 21.0 °F 9.3 °F 18.0 °F 88% 30.28 in 2.5 mi ESE 11.5 mph - N/A   Overcast
3:14 PM 21.2 °F 8.3 °F 17.6 °F 86% 30.14 in 3.0 mi ESE 13.8 mph - N/A   Overcast
3:21 PM 21.2 °F 8.9 °F 17.6 °F 86% 30.14 in 2.5 mi ESE 12.7 mph - N/A   Overcast
3:29 PM 21.2 °F 8.9 °F 17.6 °F 86% 30.14 in 3.0 mi ESE 12.7 mph - N/A   Overcast
3:51 PM 21.0 °F 9.3 °F 18.0 °F 88% 30.27 in 3.0 mi ESE 11.5 mph - N/A   Overcast
4:51 PM 21.0 °F 8.6 °F 18.0 °F 88% 30.28 in 4.0 mi ESE 12.7 mph - N/A   Overcast
5:51 PM 21.0 °F 7.6 °F 18.0 °F 88% 30.27 in 4.0 mi SE 15.0 mph - N/A   Overcast
6:51 PM 21.0 °F 8.6 °F 18.0 °F 88% 30.27 in 4.0 mi SE 12.7 mph - N/A   Overcast
7:21 PM 21.2 °F 8.9 °F 17.6 °F 86% 30.15 in 2.5 mi SE 12.7 mph - N/A   Overcast
7:38 PM 21.2 °F 9.5 °F 17.6 °F 86% 30.15 in 3.0 mi SE 11.5 mph - N/A   Overcast
7:51 PM 21.0 °F 9.9 °F 18.0 °F 88% 30.28 in 3.0 mi SE 10.4 mph - N/A   Overcast
8:00 PM 21.2 °F 8.3 °F 17.6 °F 86% 30.15 in 2.5 mi SE 13.8 mph - N/A   Overcast
8:08 PM 21.2 °F 8.9 °F 17.6 °F 86% 30.15 in 1.8 mi ESE 12.7 mph - N/A   Overcast
8:27 PM 21.2 °F 9.5 °F 17.6 °F 86% 30.14 in 2.0 mi ESE 11.5 mph - N/A   Overcast
8:51 PM 21.0 °F 8.1 °F 18.0 °F 88% 30.27 in 2.5 mi SSE 13.8 mph - N/A   Overcast
9:00 PM 21.2 °F 8.9 °F 17.6 °F 86% 30.15 in 3.0 mi SSE 12.7 mph - N/A   Overcast
9:29 PM 19.4 °F 5.5 °F 17.6 °F 93% 30.14 in 2.0 mi SE 15.0 mph - N/A   Overcast
9:36 PM 19.4 °F 6.0 °F 17.6 °F 93% 30.13 in 1.5 mi SE 13.8 mph - N/A   Overcast
9:48 PM 19.4 °F 5.5 °F 17.6 °F 93% 30.14 in 2.0 mi SE 15.0 mph - N/A   Overcast
9:51 PM 19.9 °F 7.3 °F 17.1 °F 89% 30.26 in 2.0 mi SE 12.7 mph - N/A   Overcast
9:57 PM 19.4 °F 6.6 °F 17.6 °F 93% 30.13 in 1.8 mi SE 12.7 mph - N/A   Overcast
10:04 PM 19.4 °F 7.9 °F 17.6 °F 93% 30.13 in 2.0 mi SE 10.4 mph - N/A   Overcast
10:38 PM 19.4 °F 5.0 °F 17.6 °F 93% 30.12 in 4.0 mi SSE 16.1 mph 21.9 mph N/A   Overcast
10:51 PM 19.9 °F 5.7 °F 16.0 °F 85% 30.25 in 3.0 mi SE 16.1 mph 24.2 mph N/A   Overcast
11:51 PM 19.9 °F 5.7 °F 16.0 °F 85% 30.24 in 3.0 mi SE 16.1 mph - N/A   Overcast